Location: Vihti�l�
(61.3833°N, 23.0667°E)
Time: 04:43:56
(UTC+00:00)

Cosmos 1666 - Pass Details

Date: 29 November 2020
Orbit: 496 x 520 km, 82.5° (Epoch: 19 January)

Event Time Altitude Azimuth Distance (km) Brightness Sun altitude
Rises 06:08:48 0° 169° (S) 2,592 7.0 -6.4°
Reaches altitude 10° 06:11:00 10° 161° (SSE) 1,716 6.3 -6.2°
Maximum altitude 06:14:27 36° 94° (E) 819 4.4 -5.9°
Drops below altitude 10° 06:17:58 10° 27° (NNE) 1,741 5.3 -5.6°
Sets 06:20:13 0° 19° (NNE) 2,637 6.1 -5.3°
